KD0TGF-W Weather Reports


time (UTC)temp
C
wind
direction
speed
KPH
gust
KPH
rain 1hr
cm
rain 24hr
cm
rain mn
cm
humidity
%
barometer
mb
20260502204438 17 266 14.5 24.1 0.00 0.00 0.00 36 1013.6
20260502204338 17 263 14.5 24.1 0.00 0.00 0.00 36 1013.6
20260502204238 17 261 14.5 24.1 0.00 0.00 0.00 35 1013.6
20260502204139 17 259 14.5 24.1 0.00 0.00 0.00 37 1013.7
20260502204038 17 260 14.5 24.1 0.00 0.00 0.00 36 1013.6
20260502203939 17 259 14.5 24.1 0.00 0.00 0.00 36 1013.8
20260502203838 17 257 12.9 22.5 0.00 0.00 0.00 37 1013.8
20260502203738 17 261 12.9 24.1 0.00 0.00 0.00 36 1013.7
20260502203637 17 269 12.9 24.1 0.00 0.00 0.00 36 1013.7
20260502203538 17 274 14.5 27.4 0.00 0.00 0.00 36 1013.7
20260502203438 17 279 14.5 27.4 0.00 0.00 0.00 35 1013.7
20260502203338 17 280 14.5 27.4 0.00 0.00 0.00 35 1013.8
20260502203238 17 282 12.9 27.4 0.00 0.00 0.00 35 1013.8
20260502203138 17 284 12.9 27.4 0.00 0.00 0.00 37 1013.8
20260502203038 17 285 12.9 27.4 0.00 0.00 0.00 36 1013.9
20260502202938 17 284 12.9 27.4 0.00 0.00 0.00 37 1013.9
20260502202838 17 283 12.9 27.4 0.00 0.00 0.00 35 1013.9
20260502202738 17 283 12.9 27.4 0.00 0.00 0.00 37 1013.9
20260502202638 17 284 11.3 27.4 0.00 0.00 0.00 36 1014.0
20260502202538 17 284 11.3 25.7 0.00 0.00 0.00 38 1014.0
20260502202437 16 281 11.3 22.5 0.00 0.00 0.00 35 1014.0
20260502202338 17 281 12.9 27.4 0.00 0.00 0.00 35 1014.0
20260502202238 17 282 12.9 27.4 0.00 0.00 0.00 36 1014.0
20260502202138 17 284 12.9 27.4 0.00 0.00 0.00 36 1014.0
20260502202038 17 285 11.3 27.4 0.00 0.00 0.00 36 1014.1
20260502201938 17 287 11.3 27.4 0.00 0.00 0.00 38 1014.1
20260502201838 17 291 11.3 27.4 0.00 0.00 0.00 37 1014.1
20260502201738 17 291 11.3 27.4 0.00 0.00 0.00 36 1014.1
20260502201638 17 290 11.3 27.4 0.00 0.00 0.00 36 1014.1
20260502201538 17 290 12.9 27.4 0.00 0.00 0.00 37 1014.2
20260502201438 17 293 12.9 27.4 0.00 0.00 0.00 35 1014.2
20260502201338 17 295 11.3 27.4 0.00 0.00 0.00 38 1014.2
20260502201238 17 294 11.3 27.4 0.00 0.00 0.00 36 1014.2
20260502201138 17 291 12.9 27.4 0.00 0.00 0.00 35 1014.2
20260502201038 17 288 12.9 27.4 0.00 0.00 0.00 36 1014.2
20260502200938 17 288 12.9 27.4 0.00 0.00 0.00 36 1014.2
20260502200838 17 287 12.9 27.4 0.00 0.00 0.00 38 1014.2
20260502200738 17 287 12.9 27.4 0.00 0.00 0.00 36 1014.3
20260502200538 17 288 12.9 19.3 0.00 0.00 0.00 37 1014.3
20260502200438 17 288 11.3 19.3 0.00 0.00 0.00 36 1014.3
20260502200338 17 288 11.3 19.3 0.00 0.00 0.00 39 1014.3
20260502200238 17 291 9.7 19.3 0.00 0.00 0.00 36 1014.3
20260502200138 17 290 9.7 19.3 0.00 0.00 0.00 37 1014.4
20260502200038 17 290 9.7 19.3 0.00 0.00 0.00 38 1014.4
20260502195939 17 286 9.7 19.3 0.00 0.00 0.00 39 1014.3
20260502195838 16 284 9.7 20.9 0.00 0.00 0.00 37 1014.3
20260502195738 16 281 11.3 24.1 0.00 0.00 0.00 36 1014.3
20260502195638 16 279 11.3 24.1 0.00 0.00 0.00 36 1014.4
20260502195538 16 276 11.3 24.1 0.00 0.00 0.00 36 1014.3
20260502195438 16 274 11.3 24.1 0.00 0.00 0.00 35 1014.4
20260502195337 16 272 11.3 24.1 0.00 0.00 0.00 36 1014.3
20260502195238 16 267 12.9 24.1 0.00 0.00 0.00 38 1014.5
20260502195138 17 265 12.9 24.1 0.00 0.00 0.00 35 1014.4
20260502195038 17 267 12.9 24.1 0.00 0.00 0.00 36 1014.5
20260502194938 17 269 12.9 24.1 0.00 0.00 0.00 36 1014.5
20260502194837 17 270 11.3 24.1 0.00 0.00 0.00 37 1014.6
20260502194738 16 271 9.7 24.1 0.00 0.00 0.00 39 1014.6
20260502194638 16 275 11.3 24.1 0.00 0.00 0.00 39 1014.6
20260502194538 16 275 11.3 24.1 0.00 0.00 0.00 38 1014.6
20260502194438 16 279 11.3 24.1 0.00 0.00 0.00 36 1014.5
20260502194338 16 283 12.9 24.1 0.00 0.00 0.00 35 1014.6
20260502194238 16 286 12.9 24.1 0.00 0.00 0.00 38 1014.6
20260502194137 16 289 12.9 24.1 0.00 0.00 0.00 35 1014.6
20260502194038 16 288 14.5 24.1 0.00 0.00 0.00 37 1014.7
20260502193938 16 285 14.5 24.1 0.00 0.00 0.00 36 1014.7
20260502193838 16 282 14.5 24.1 0.00 0.00 0.00 36 1014.8
20260502193737 16 281 14.5 24.1 0.00 0.00 0.00 38 1014.7
20260502193638 16 278 12.9 22.5 0.00 0.00 0.00 37 1014.7
20260502193538 16 278 12.9 22.5 0.00 0.00 0.00 35 1014.8
20260502193437 16 275 12.9 22.5 0.00 0.00 0.00 37 1014.8
20260502193338 16 271 11.3 22.5 0.00 0.00 0.00 36 1014.8
20260502193238 16 271 9.7 22.5 0.00 0.00 0.00 36 1014.8
20260502193138 16 273 9.7 22.5 0.00 0.00 0.00 38 1014.9
20260502193037 16 280 8.0 17.7 0.00 0.00 0.00 38 1014.9
20260502192938 16 284 8.0 17.7 0.00 0.00 0.00 37 1014.9
20260502192838 16 288 8.0 17.7 0.00 0.00 0.00 36 1014.9
20260502192738 16 296 8.0 17.7 0.00 0.00 0.00 37 1014.9
20260502192637 16 299 8.0 17.7 0.00 0.00 0.00 37 1014.9
20260502192538 16 301 8.0 22.5 0.00 0.00 0.00 35 1014.9
20260502192438 16 300 9.7 29.0 0.00 0.00 0.00 38 1014.9
20260502192338 16 299 11.3 29.0 0.00 0.00 0.00 36 1014.9
20260502192237 16 298 11.3 29.0 0.00 0.00 0.00 37 1014.9
20260502192138 16 294 11.3 29.0 0.00 0.00 0.00 36 1015.0
20260502192038 16 288 11.3 29.0 0.00 0.00 0.00 36 1015.0
20260502191938 16 288 11.3 29.0 0.00 0.00 0.00 35 1015.0
20260502191837 16 287 11.3 29.0 0.00 0.00 0.00 35 1015.0
20260502191738 16 283 11.3 29.0 0.00 0.00 0.00 38 1015.1
20260502191638 16 281 11.3 29.0 0.00 0.00 0.00 37 1015.1
20260502191538 16 281 11.3 29.0 0.00 0.00 0.00 36 1015.1
20260502191438 16 279 11.3 24.1 0.00 0.00 0.00 38 1015.1
20260502191338 15 278 11.3 22.5 0.00 0.00 0.00 34 1015.1
20260502191238 15 278 11.3 22.5 0.00 0.00 0.00 38 1015.1
20260502191037 15 277 9.7 22.5 0.00 0.00 0.00 37 1015.2
20260502190938 15 276 11.3 22.5 0.00 0.00 0.00 36 1015.2
20260502190838 15 275 9.7 22.5 0.00 0.00 0.00 36 1015.3
20260502190738 15 274 9.7 22.5 0.00 0.00 0.00 36 1015.2
20260502190637 16 273 9.7 22.5 0.00 0.00 0.00 35 1015.3
20260502190537 15 271 9.7 22.5 0.00 0.00 0.00 39 1015.3
20260502190438 15 270 9.7 22.5 0.00 0.00 0.00 37 1015.3
20260502190338 15 270 8.0 17.7 0.00 0.00 0.00 37 1015.3
20260502190138 15 272 11.3 24.1 0.00 0.00 0.00 35 1015.3
20260502190039 15 275 11.3 24.1 0.00 0.00 0.00 37 1015.4
20260502185938 15 275 11.3 24.1 0.00 0.00 0.00 37 1015.4
20260502185837 15 273 11.3 24.1 0.00 0.00 0.00 37 1015.4
20260502185737 15 270 11.3 24.1 0.00 0.00 0.00 38 1015.4
20260502185638 15 266 9.7 24.1 0.00 0.00 0.00 37 1015.4
20260502185538 15 261 9.7 24.1 0.00 0.00 0.00 36 1015.4
20260502185438 15 261 9.7 24.1 0.00 0.00 0.00 36 1015.5
20260502185337 15 260 11.3 24.1 0.00 0.00 0.00 36 1015.5
20260502185237 15 259 9.7 24.1 0.00 0.00 0.00 35 1015.5
20260502185138 15 254 9.7 22.5 0.00 0.00 0.00 38 1015.5
20260502185038 15 255 11.3 22.5 0.00 0.00 0.00 38 1015.5
20260502184937 15 257 11.3 22.5 0.00 0.00 0.00 37 1015.5
20260502184837 15 259 12.9 22.5 0.00 0.00 0.00 35 1015.4
20260502184738 15 262 12.9 22.5 0.00 0.00 0.00 35 1015.5
20260502184638 15 268 12.9 22.5 0.00 0.00 0.00 35 1015.5
20260502184539 15 272 12.9 22.5 0.00 0.00 0.00 37 1015.6
20260502184437 15 276 12.9 22.5 0.00 0.00 0.00 38 1015.6
20260502184337 15 278 12.9 22.5 0.00 0.00 0.00 36 1015.6
20260502184237 15 281 14.5 22.5 0.00 0.00 0.00 35 1015.6
20260502184137 15 285 14.5 22.5 0.00 0.00 0.00 36 1015.7
20260502184038 15 288 12.9 22.5 0.00 0.00 0.00 37 1015.8
20260502183938 15 290 14.5 24.1 0.00 0.00 0.00 38 1015.8
20260502183838 15 292 12.9 24.1 0.00 0.00 0.00 37 1015.8
20260502183738 15 295 12.9 24.1 0.00 0.00 0.00 37 1015.8
20260502183637 15 295 11.3 24.1 0.00 0.00 0.00 36 1015.8
20260502183537 15 295 11.3 24.1 0.00 0.00 0.00 37 1015.8
20260502183439 15 292 11.3 24.1 0.00 0.00 0.00 37 1015.9
20260502183338 15 289 11.3 24.1 0.00 0.00 0.00 38 1015.8
20260502183238 14 284 9.7 24.1 0.00 0.00 0.00 38 1015.8
20260502183138 14 281 9.7 24.1 0.00 0.00 0.00 38 1015.7
20260502183039 14 278 9.7 24.1 0.00 0.00 0.00 39 1015.8
20260502182938 14 276 9.7 20.9 0.00 0.00 0.00 40 1015.9
20260502182837 13 276 9.7 22.5 0.00 0.00 0.00 39 1015.9
20260502182738 13 277 11.3 22.5 0.00 0.00 0.00 38 1015.8
20260502182637 13 276 12.9 22.5 0.00 0.00 0.00 39 1015.9
20260502182537 13 276 12.9 22.5 0.00 0.00 0.00 38 1015.9
20260502182438 13 277 12.9 22.5 0.00 0.00 0.00 37 1015.8
20260502182338 13 280 12.9 22.5 0.00 0.00 0.00 39 1015.9
20260502182237 13 281 12.9 22.5 0.00 0.00 0.00 39 1015.9
20260502182137 14 281 12.9 22.5 0.00 0.00 0.00 39 1016.0
20260502182038 14 281 12.9 22.5 0.00 0.00 0.00 38 1016.0
20260502181938 14 281 12.9 22.5 0.00 0.00 0.00 38 1016.0
20260502181837 14 282 11.3 22.5 0.00 0.00 0.00 38 1016.1
20260502181737 14 282 11.3 19.3 0.00 0.00 0.00 38 1016.1
20260502181638 14 282 12.9 20.9 0.00 0.00 0.00 37 1016.0
20260502181538 14 280 12.9 24.1 0.00 0.00 0.00 38 1016.1
20260502181437 14 282 12.9 24.1 0.00 0.00 0.00 37 1016.0
20260502181337 14 283 12.9 29.0 0.00 0.00 0.00 38 1016.1
20260502181238 15 283 14.5 29.0 0.00 0.00 0.00 38 1016.2
20260502181138 15 283 16.1 29.0 0.00 0.00 0.00 37 1016.2
20260502181038 15 283 16.1 29.0 0.00 0.00 0.00 37 1016.3
20260502180937 15 282 17.7 29.0 0.00 0.00 0.00 39 1016.3
20260502180838 15 279 17.7 29.0 0.00 0.00 0.00 37 1016.2
20260502180738 15 278 17.7 29.0 0.00 0.00 0.00 37 1016.3
20260502180638 15 277 17.7 29.0 0.00 0.00 0.00 38 1016.3
20260502180537 14 277 17.7 29.0 0.00 0.00 0.00 38 1016.2
20260502180437 15 274 17.7 29.0 0.00 0.00 0.00 38 1016.4
20260502180338 15 273 16.1 25.7 0.00 0.00 0.00 39 1016.4
20260502180237 14 271 16.1 25.7 0.00 0.00 0.00 38 1016.2
20260502180137 14 271 16.1 25.7 0.00 0.00 0.00 37 1016.2
20260502170437 13 253 14.5 24.1 0.00 0.00 0.00 37 1017.2
20260502170338 13 251 14.5 24.1 0.00 0.00 0.00 37 1017.2
20260502170237 13 252 14.5 25.7 0.00 0.00 0.00 39 1017.2
20260502170137 13 251 14.5 25.7 0.00 0.00 0.00 39 1017.2
20260502164337 13 247 17.7 29.0 0.00 0.00 0.00 38 1017.3
20260502164237 13 247 17.7 29.0 0.00 0.00 0.00 38 1017.3
20260502164138 13 246 17.7 29.0 0.00 0.00 0.00 37 1017.3
20260502164037 13 245 16.1 29.0 0.00 0.00 0.00 41 1017.3
20260502163938 13 245 14.5 29.0 0.00 0.00 0.00 40 1017.3
20260502163837 12 246 14.5 29.0 0.00 0.00 0.00 39 1017.3
20260502163737 13 249 14.5 29.0 0.00 0.00 0.00 38 1017.4
20260502163637 13 255 16.1 29.0 0.00 0.00 0.00 39 1017.4
20260502163537 13 258 16.1 29.0 0.00 0.00 0.00 39 1017.4
20260502163437 12 259 16.1 29.0 0.00 0.00 0.00 40 1017.3
20260502163337 12 262 16.1 29.0 0.00 0.00 0.00 39 1017.3
20260502163238 12 265 14.5 29.0 0.00 0.00 0.00 40 1017.4
20260502163137 12 268 16.1 29.0 0.00 0.00 0.00 40 1017.4
20260502163037 12 269 16.1 29.0 0.00 0.00 0.00 39 1017.4
20260502162937 12 270 17.7 29.0 0.00 0.00 0.00 40 1017.4
20260502162837 12 270 17.7 29.0 0.00 0.00 0.00 40 1017.5
20260502162738 12 270 17.7 29.0 0.00 0.00 0.00 40 1017.6
20260502162637 12 270 17.7 29.0 0.00 0.00 0.00 41 1017.6
20260502162538 12 270 17.7 29.0 0.00 0.00 0.00 40 1017.5
20260502162437 12 270 17.7 29.0 0.00 0.00 0.00 45 1017.6
20260502162337 12 266 16.1 29.0 0.00 0.00 0.00 45 1017.6
20260502162237 12 264 16.1 29.0 0.00 0.00 0.00 41 1017.6
20260502162137 12 261 16.1 29.0 0.00 0.00 0.00 40 1017.6
20260502162037 12 262 16.1 29.0 0.00 0.00 0.00 42 1017.7
20260502161937 12 262 14.5 29.0 0.00 0.00 0.00 43 1017.7
20260502161837 12 260 14.5 29.0 0.00 0.00 0.00 39 1017.7
20260502161737 12 257 14.5 29.0 0.00 0.00 0.00 43 1017.7
20260502161638 12 255 14.5 25.7 0.00 0.00 0.00 41 1017.6
20260502161537 12 257 16.1 25.7 0.00 0.00 0.00 41 1017.7
20260502161437 12 260 16.1 27.4 0.00 0.00 0.00 39 1017.7
20260502161337 12 264 16.1 27.4 0.00 0.00 0.00 43 1017.7
20260502161237 12 265 14.5 27.4 0.00 0.00 0.00 42 1017.7
20260502161137 12 266 16.1 29.0 0.00 0.00 0.00 41 1017.7
20260502161038 12 265 16.1 29.0 0.00 0.00 0.00 42 1017.8
20260502160937 12 265 16.1 29.0 0.00 0.00 0.00 41 1017.9
20260502160837 12 266 16.1 29.0 0.00 0.00 0.00 42 1017.8
20260502160737 12 269 16.1 29.0 0.00 0.00 0.00 42 1017.8
20260502160638 12 268 16.1 29.0 0.00 0.00 0.00 41 1017.8
20260502160537 12 267 16.1 29.0 0.00 0.00 0.00 41 1017.7
20260502160437 12 268 16.1 29.0 0.00 0.00 0.00 42 1017.9
20260502160338 12 267 16.1 29.0 0.00 0.00 0.00 43 1017.9
20260502160137 12 269 16.1 25.7 0.00 0.00 0.00 46 1017.9
20260502152336 11 277 11.3 20.9 0.00 0.00 0.00 48 1018.1
20260502152237 11 277 11.3 22.5 0.00 0.00 0.00 47 1018.1
20260502152137 11 273 12.9 24.1 0.00 0.00 0.00 51 1018.1
20260502152037 11 271 12.9 24.1 0.00 0.00 0.00 49 1018.1
20260502151937 11 270 12.9 24.1 0.00 0.00 0.00 48 1018.1
20260502151836 11 270 12.9 24.1 0.00 0.00 0.00 48 1018.1
20260502151737 11 269 12.9 24.1 0.00 0.00 0.00 45 1018.1
20260502151637 11 267 12.9 24.1 0.00 0.00 0.00 48 1018.1
20260502151537 11 268 12.9 24.1 0.00 0.00 0.00 49 1018.2
20260502151437 11 269 12.9 24.1 0.00 0.00 0.00 49 1018.2
20260502151337 11 270 12.9 24.1 0.00 0.00 0.00 48 1018.2
20260502151237 11 272 12.9 24.1 0.00 0.00 0.00 46 1018.1
20260502151138 11 277 12.9 22.5 0.00 0.00 0.00 48 1018.2
20260502151037 11 276 12.9 22.5 0.00 0.00 0.00 48 1018.2
20260502150937 11 274 12.9 22.5 0.00 0.00 0.00 47 1018.3
20260502150837 11 271 12.9 22.5 0.00 0.00 0.00 50 1018.3
20260502150737 11 270 12.9 22.5 0.00 0.00 0.00 49 1018.3
20260502150638 11 271 14.5 22.5 0.00 0.00 0.00 49 1018.4
20260502150537 11 271 12.9 22.5 0.00 0.00 0.00 50 1018.4
20260502150436 11 271 12.9 22.5 0.00 0.00 0.00 50 1018.4
20260502150337 11 271 12.9 22.5 0.00 0.00 0.00 52 1018.3
20260502150237 11 269 12.9 22.5 0.00 0.00 0.00 50 1018.4
20260502150136 11 269 12.9 22.5 0.00 0.00 0.00 50 1018.3
20260502130736 5 272 8.0 12.9 0.00 0.00 0.00 69 1018.6
20260502130636 5 273 8.0 11.3 0.00 0.00 0.00 69 1018.6
20260502130536 5 272 8.0 11.3 0.00 0.00 0.00 69 1018.6
20260502130437 5 270 8.0 11.3 0.00 0.00 0.00 70 1018.6
20260502130336 5 270 6.4 11.3 0.00 0.00 0.00 69 1018.5
20260502130236 5 269 6.4 11.3 0.00 0.00 0.00 69 1018.5
20260502130136 5 268 6.4 11.3 0.00 0.00 0.00 69 1018.6
20260502123737 3 266 1.6 9.7 0.00 0.00 0.00 73 1018.6
20260502123636 3 260 1.6 9.7 0.00 0.00 0.00 73 1018.6
20260502123536 3 255 0.0 8.0 0.00 0.00 0.00 74 1018.6
20260502123437 3 241 0.0 6.4 0.00 0.00 0.00 75 1018.6
20260502123336 3 241 0.0 6.4 0.00 0.00 0.00 74 1018.6
20260502123236 3 240 1.6 6.4 0.00 0.00 0.00 75 1018.6
20260502123136 3 240 1.6 6.4 0.00 0.00 0.00 75 1018.6
20260502123036 3 240 1.6 6.4 0.00 0.00 0.00 74 1018.6
20260502122936 3 240 1.6 6.4 0.00 0.00 0.00 74 1018.6
20260502122836 3 240 0.0 6.4 0.00 0.00 0.00 74 1018.6
20260502122736 3 240 0.0 6.4 0.00 0.00 0.00 74 1018.6
20260502122636 3 239 0.0 6.4 0.00 0.00 0.00 74 1018.5
20260502122537 2 239 0.0 6.4 0.00 0.00 0.00 75 1018.5
20260502122436 2 239 0.0 6.4 0.00 0.00 0.00 74 1018.5
20260502122336 2 238 0.0 6.4 0.00 0.00 0.00 74 1018.5
20260502122236 2 238 0.0 6.4 0.00 0.00 0.00 74 1018.5
20260502122136 2 238 0.0 1.6 0.00 0.00 0.00 74 1018.5
20260502122036 2 238 0.0 1.6 0.00 0.00 0.00 74 1018.5
20260502121936 2 238 0.0 1.6 0.00 0.00 0.00 75 1018.5
20260502121836 2 238 0.0 1.6 0.00 0.00 0.00 75 1018.5
20260502121736 2 247 0.0 1.6 0.00 0.00 0.00 75 1018.5
20260502121636 2 247 0.0 1.6 0.00 0.00 0.00 75 1018.5
20260502121536 2 247 0.0 1.6 0.00 0.00 0.00 76 1018.5
20260502121437 2 247 0.0 1.6 0.00 0.00 0.00 76 1018.5
20260502121336 2 247 0.0 1.6 0.00 0.00 0.00 76 1018.5
20260502121236 2 245 0.0 1.6 0.00 0.00 0.00 76 1018.5
20260502121136 2 245 0.0 1.6 0.00 0.00 0.00 76 1018.5
20260502121036 2 245 0.0 1.6 0.00 0.00 0.00 76 1018.5
20260502120936 2 245 0.0 1.6 0.00 0.00 0.00 76 1018.5
20260502120835 2 245 0.0 1.6 0.00 0.00 0.00 76 1018.5
20260502120736 1 243 0.0 1.6 0.00 0.00 0.00 76 1018.5
20260502120636 1 243 0.0 1.6 0.00 0.00 0.00 76 1018.6
20260502120536 1 243 0.0 1.6 0.00 0.00 0.00 76 1018.4
20260502120437 1 243 0.0 1.6 0.00 0.00 0.00 76 1018.5
20260502120336 1 243 0.0 1.6 0.00 0.00 0.00 76 1018.4
20260502120236 1 242 0.0 1.6 0.00 0.00 0.00 77 1018.4
20260502120137 1 242 0.0 1.6 0.00 0.00 0.00 77 1018.5
20260502115836 1 242 0.0 1.6 0.00 0.00 0.00 77 1018.4
20260502115735 1 242 0.0 1.6 0.00 0.00 0.00 77 1018.4
20260502115636 1 242 0.0 1.6 0.00 0.00 0.00 77 1018.4
20260502115537 1 0 0.0 0.0 0.00 0.00 0.00 77 1018.4
20260502115436 1 0 0.0 0.0 0.00 0.00 0.00 78 1018.4
20260502115336 1 237 0.0 1.6 0.00 0.00 0.00 78 1018.4
20260502115236 1 237 0.0 1.6 0.00 0.00 0.00 78 1018.5
20260502115136 1 237 0.0 1.6 0.00 0.00 0.00 78 1018.4
20260502115037 1 235 0.0 1.6 0.00 0.00 0.00 78 1018.4
20260502114936 1 235 0.0 1.6 0.00 0.00 0.00 77 1018.4
20260502114836 1 235 0.0 1.6 0.00 0.00 0.00 77 1018.4
20260502114736 0 235 0.0 1.6 0.00 0.00 0.00 77 1018.4
20260502114636 0 232 0.0 3.2 0.00 0.00 0.00 77 1018.4
20260502114536 0 230 0.0 3.2 0.00 0.00 0.00 77 1018.4
20260502114436 0 229 0.0 3.2 0.00 0.00 0.00 77 1018.4
20260502114336 0 228 1.6 3.2 0.00 0.00 0.00 77 1018.4
20260502114236 0 228 1.6 3.2 0.00 0.00 0.00 77 1018.4
20260502114136 0 228 1.6 3.2 0.00 0.00 0.00 77 1018.4
20260502114036 0 228 1.6 3.2 0.00 0.00 0.00 78 1018.4
20260502113936 0 228 1.6 3.2 0.00 0.00 0.00 78 1018.4
20260502113836 0 228 1.6 3.2 0.00 0.00 0.00 78 1018.4
20260502113736 0 228 1.6 3.2 0.00 0.00 0.00 78 1018.4
20260502113636 0 227 1.6 3.2 0.00 0.00 0.00 78 1018.4
20260502113536 0 227 0.0 3.2 0.00 0.00 0.00 78 1018.4
20260502113436 0 226 0.0 3.2 0.00 0.00 0.00 78 1018.4
20260502113336 0 226 0.0 3.2 0.00 0.00 0.00 78 1018.4
20260502113237 0 0 0.0 0.0 0.00 0.00 0.00 79 1018.4
20260502113136 0 0 0.0 0.0 0.00 0.00 0.00 78 1018.3
20260502113036 0 0 0.0 0.0 0.00 0.00 0.00 78 1018.4
20260502112936 0 0 0.0 0.0 0.00 0.00 0.00 79 1018.4
20260502112836 0 0 0.0 0.0 0.00 0.00 0.00 79 1018.3
20260502112736 0 0 0.0 0.0 0.00 0.00 0.00 79 1018.3
20260502112636 0 0 0.0 0.0 0.00 0.00 0.00 79 1018.3
20260502112536 0 0 0.0 0.0 0.00 0.00 0.00 79 1018.3
20260502112436 0 0 0.0 0.0 0.00 0.00 0.00 79 1018.3
20260502112336 0 0 0.0 0.0 0.00 0.00 0.00 79 1018.3
20260502112236 0 0 0.0 0.0 0.00 0.00 0.00 79 1018.3
20260502112136 0 0 0.0 0.0 0.00 0.00 0.00 79 1018.3
20260502112036 0 0 0.0 0.0 0.00 0.00 0.00 79 1018.3
20260502111936 0 0 0.0 0.0 0.00 0.00 0.00 78 1018.3
20260502111836 0 262 0.0 1.6 0.00 0.00 0.00 78 1018.3
20260502111736 0 262 0.0 1.6 0.00 0.00 0.00 78 1018.3
20260502111636 0 262 0.0 1.6 0.00 0.00 0.00 78 1018.3
20260502111536 0 262 0.0 1.6 0.00 0.00 0.00 78 1018.3
20260502111436 0 262 0.0 1.6 0.00 0.00 0.00 79 1018.3
20260502111335 0 262 0.0 1.6 0.00 0.00 0.00 79 1018.3
20260502111236 0 262 0.0 1.6 0.00 0.00 0.00 79 1018.3
20260502111136 0 262 0.0 1.6 0.00 0.00 0.00 79 1018.3
20260502111036 0 262 0.0 1.6 0.00 0.00 0.00 79 1018.3
20260502110936 0 262 0.0 1.6 0.00 0.00 0.00 79 1018.3
20260502110836 0 0 0.0 0.0 0.00 0.00 0.00 79 1018.3
20260502110736 0 0 0.0 0.0 0.00 0.00 0.00 79 1018.3
20260502110636 0 0 0.0 0.0 0.00 0.00 0.00 79 1018.3
20260502110536 0 0 0.0 0.0 0.00 0.00 0.00 79 1018.3
20260502110436 0 0 0.0 0.0 0.00 0.00 0.00 79 1018.3
20260502110336 0 0 0.0 0.0 0.00 0.00 0.00 79 1018.3
20260502110236 0 0 0.0 0.0 0.00 0.00 0.00 79 1018.3
20260502110136 0 0 0.0 0.0 0.00 0.00 0.00 79 1018.4
20260502110035 0 0 0.0 0.0 0.00 0.00 0.00 79 1018.3
20260502105936 0 0 0.0 0.0 0.00 0.00 0.00 79 1018.3
20260502105835 0 0 0.0 0.0 0.00 0.00 0.00 79 1018.3
20260502105736 0 0 0.0 0.0 0.00 0.00 0.00 79 1018.3
20260502105636 0 0 0.0 0.0 0.00 0.00 0.00 78 1018.3
20260502105536 0 0 0.0 0.0 0.00 0.00 0.00 78 1018.3
20260502105435 0 0 0.0 0.0 0.00 0.00 0.00 78 1018.3
20260502105336 0 0 0.0 0.0 0.00 0.00 0.00 78 1018.3
20260502105236 0 0 0.0 0.0 0.00 0.00 0.00 78 1018.3
20260502105136 0 0 0.0 0.0 0.00 0.00 0.00 78 1018.3
20260502105035 0 0 0.0 0.0 0.00 0.00 0.00 79 1018.3
20260502104936 0 0 0.0 0.0 0.00 0.00 0.00 79 1018.3
20260502104836 0 0 0.0 0.0 0.00 0.00 0.00 79 1018.3
20260502104737 0 0 0.0 0.0 0.00 0.00 0.00 79 1018.3
20260502104636 0 0 0.0 0.0 0.00 0.00 0.00 79 1018.3
20260502104535 0 0 0.0 0.0 0.00 0.00 0.00 79 1018.3
20260502104435 0 0 0.0 0.0 0.00 0.00 0.00 79 1018.3
20260502104336 0 0 0.0 0.0 0.00 0.00 0.00 79 1018.3
20260502104235 0 0 0.0 0.0 0.00 0.00 0.00 79 1018.3
20260502104136 0 0 0.0 0.0 0.00 0.00 0.00 79 1018.3
20260502104036 0 0 0.0 0.0 0.00 0.00 0.00 79 1018.3
20260502103936 0 0 0.0 0.0 0.00 0.00 0.00 79 1018.3
20260502103836 0 0 0.0 0.0 0.00 0.00 0.00 79 1018.3
20260502103736 0 0 0.0 0.0 0.00 0.00 0.00 79 1018.2
20260502103636 0 0 0.0 0.0 0.00 0.00 0.00 79 1018.3
20260502103535 0 0 0.0 0.0 0.00 0.00 0.00 80 1018.2
20260502103436 0 0 0.0 0.0 0.00 0.00 0.00 79 1018.2
20260502103336 0 0 0.0 0.0 0.00 0.00 0.00 79 1018.3
20260502103236 0 0 0.0 0.0 0.00 0.00 0.00 79 1018.3
20260502103135 0 0 0.0 0.0 0.00 0.00 0.00 80 1018.3
20260502103035 0 0 0.0 0.0 0.00 0.00 0.00 80 1018.3
20260502102936 0 0 0.0 0.0 0.00 0.00 0.00 80 1018.3
20260502102836 0 0 0.0 0.0 0.00 0.00 0.00 80 1018.3
20260502102736 0 0 0.0 0.0 0.00 0.00 0.00 80 1018.3
20260502102635 0 0 0.0 0.0 0.00 0.00 0.00 79 1018.3
20260502102536 0 0 0.0 0.0 0.00 0.00 0.00 79 1018.3
20260502102436 0 0 0.0 0.0 0.00 0.00 0.00 79 1018.3
20260502102335 0 0 0.0 0.0 0.00 0.00 0.00 79 1018.3
20260502102235 0 0 0.0 0.0 0.00 0.00 0.00 80 1018.3
20260502102136 0 0 0.0 0.0 0.00 0.00 0.00 79 1018.3
20260502102037 0 0 0.0 0.0 0.00 0.00 0.00 79 1018.3
20260502101936 0 0 0.0 0.0 0.00 0.00 0.00 79 1018.3
20260502101835 0 0 0.0 0.0 0.00 0.00 0.00 79 1018.3
20260502101736 0 0 0.0 0.0 0.00 0.00 0.00 79 1018.2
20260502101636 0 0 0.0 0.0 0.00 0.00 0.00 79 1018.3
20260502101536 0 0 0.0 0.0 0.00 0.00 0.00 79 1018.3
20260502101435 0 0 0.0 0.0 0.00 0.00 0.00 79 1018.3
20260502101336 0 0 0.0 0.0 0.00 0.00 0.00 79 1018.3
20260502101236 0 0 0.0 0.0 0.00 0.00 0.00 79 1018.3
20260502101135 0 0 0.0 0.0 0.00 0.00 0.00 79 1018.2
20260502101035 0 0 0.0 0.0 0.00 0.00 0.00 79 1018.2
20260502100935 0 0 0.0 0.0 0.00 0.00 0.00 79 1018.2
20260502100836 0 0 0.0 0.0 0.00 0.00 0.00 79 1018.2
20260502100736 0 0 0.0 0.0 0.00 0.00 0.00 79 1018.2
20260502100635 0 0 0.0 0.0 0.00 0.00 0.00 79 1018.2
20260502100535 0 0 0.0 0.0 0.00 0.00 0.00 78 1018.2
20260502100436 0 0 0.0 0.0 0.00 0.00 0.00 79 1018.2
20260502100336 0 0 0.0 0.0 0.00 0.00 0.00 79 1018.2
20260502100236 0 0 0.0 0.0 0.00 0.00 0.00 78 1018.3
20260502100135 0 0 0.0 0.0 0.00 0.00 0.00 78 1018.3
20260502091436 0 0 0.0 0.0 0.00 0.00 0.00 79 1018.3
20260502091336 0 0 0.0 0.0 0.00 0.00 0.00 79 1018.3
20260502091235 0 0 0.0 0.0 0.00 0.00 0.00 79 1018.3
20260502091135 0 0 0.0 0.0 0.00 0.00 0.00 79 1018.3
20260502091035 0 0 0.0 0.0 0.00 0.00 0.00 79 1018.2
20260502090935 0 0 0.0 0.0 0.00 0.00 0.00 79 1018.2
20260502090836 0 0 0.0 0.0 0.00 0.00 0.00 79 1018.2
20260502090735 0 0 0.0 0.0 0.00 0.00 0.00 79 1018.2
20260502090635 0 0 0.0 0.0 0.00 0.00 0.00 78 1018.2
20260502090536 0 0 0.0 0.0 0.00 0.00 0.00 78 1018.2
20260502090435 0 0 0.0 0.0 0.00 0.00 0.00 78 1018.2
20260502090335 0 0 0.0 0.0 0.00 0.00 0.00 78 1018.2
20260502090236 0 0 0.0 0.0 0.00 0.00 0.00 78 1018.2
20260502090135 0 0 0.0 0.0 0.00 0.00 0.00 78 1018.2
20260502071535 0 0 0.0 0.0 0.00 0.00 0.00 76 1018.3
20260502071434 0 0 0.0 0.0 0.00 0.00 0.00 75 1018.3
20260502071335 0 0 0.0 0.0 0.00 0.00 0.00 75 1018.2
20260502071236 0 0 0.0 0.0 0.00 0.00 0.00 75 1018.3
20260502071135 0 0 0.0 0.0 0.00 0.00 0.00 75 1018.3
20260502071035 0 0 0.0 0.0 0.00 0.00 0.00 75 1018.2
20260502070935 0 0 0.0 0.0 0.00 0.00 0.00 75 1018.3
20260502070835 0 0 0.0 0.0 0.00 0.00 0.00 75 1018.3
20260502070735 0 0 0.0 0.0 0.00 0.00 0.00 75 1018.3
20260502070634 0 0 0.0 0.0 0.00 0.00 0.00 75 1018.3
20260502070535 0 0 0.0 0.0 0.00 0.00 0.00 75 1018.3
20260502070435 0 0 0.0 0.0 0.00 0.00 0.00 76 1018.3
20260502070335 0 0 0.0 0.0 0.00 0.00 0.00 76 1018.3
20260502070235 0 0 0.0 0.0 0.00 0.00 0.00 76 1018.3
20260502070135 0 0 0.0 0.0 0.00 0.00 0.00 76 1018.3
20260502070035 0 0 0.0 0.0 0.00 0.00 0.00 75 1018.4
20260502065934 0 0 0.0 0.0 0.00 0.00 0.00 75 1018.3
20260502065835 0 0 0.0 0.0 0.00 0.00 0.00 75 1018.3
20260502065735 0 0 0.0 0.0 0.00 0.00 0.00 75 1018.4
20260502065635 0 0 0.0 0.0 0.00 0.00 0.00 75 1018.3
20260502065534 0 0 0.0 0.0 0.00 0.00 0.00 75 1018.3
20260502065435 0 0 0.0 0.0 0.00 0.00 0.00 75 1018.4
20260502065335 0 0 0.0 0.0 0.00 0.00 0.00 75 1018.4
20260502065235 0 0 0.0 0.0 0.00 0.00 0.00 75 1018.3
20260502065134 0 0 0.0 0.0 0.00 0.00 0.00 75 1018.4
20260502065034 0 0 0.0 0.0 0.00 0.00 0.00 75 1018.4
20260502064935 0 0 0.0 0.0 0.00 0.00 0.00 75 1018.4
20260502064835 0 0 0.0 0.0 0.00 0.00 0.00 76 1018.4
20260502064735 0 0 0.0 0.0 0.00 0.00 0.00 76 1018.4
20260502064635 0 0 0.0 0.0 0.00 0.00 0.00 76 1018.4
20260502064535 0 0 0.0 0.0 0.00 0.00 0.00 76 1018.4
20260502064434 0 0 0.0 0.0 0.00 0.00 0.00 76 1018.5
20260502064335 0 0 0.0 0.0 0.00 0.00 0.00 76 1018.5
20260502064235 0 0 0.0 0.0 0.00 0.00 0.00 76 1018.5
20260502064135 0 0 0.0 0.0 0.00 0.00 0.00 76 1018.5
20260502064034 0 0 0.0 0.0 0.00 0.00 0.00 76 1018.4
20260502063935 0 0 0.0 0.0 0.00 0.00 0.00 76 1018.5
20260502063835 0 0 0.0 0.0 0.00 0.00 0.00 76 1018.5
20260502063734 0 0 0.0 0.0 0.00 0.00 0.00 76 1018.5
20260502063635 0 0 0.0 0.0 0.00 0.00 0.00 76 1018.5
20260502063535 0 0 0.0 0.0 0.00 0.00 0.00 76 1018.5
20260502063435 0 0 0.0 0.0 0.00 0.00 0.00 76 1018.5
20260502063334 0 0 0.0 0.0 0.00 0.00 0.00 76 1018.5
20260502063234 0 0 0.0 0.0 0.00 0.00 0.00 76 1018.5
20260502063135 0 0 0.0 0.0 0.00 0.00 0.00 76 1018.5
20260502063035 0 0 0.0 0.0 0.00 0.00 0.00 76 1018.5
20260502062935 0 0 0.0 0.0 0.00 0.00 0.00 76 1018.5
20260502062834 0 0 0.0 0.0 0.00 0.00 0.00 76 1018.6
20260502062735 0 0 0.0 0.0 0.00 0.00 0.00 76 1018.6
20260502062635 0 0 0.0 0.0 0.00 0.00 0.00 76 1018.5
20260502062536 0 0 0.0 0.0 0.00 0.00 0.00 76 1018.5
20260502062434 0 0 0.0 0.0 0.00 0.00 0.00 76 1018.6
20260502062335 0 0 0.0 0.0 0.00 0.00 0.00 76 1018.6
20260502062235 0 0 0.0 0.0 0.00 0.00 0.00 75 1018.6
20260502062134 0 0 0.0 0.0 0.00 0.00 0.00 75 1018.6
20260502062034 0 0 0.0 0.0 0.00 0.00 0.00 75 1018.6
20260502061935 0 0 0.0 0.0 0.00 0.00 0.00 75 1018.6
20260502061836 0 0 0.0 0.0 0.00 0.00 0.00 75 1018.5
20260502061734 1 0 0.0 0.0 0.00 0.00 0.00 74 1018.5
20260502061635 1 0 0.0 0.0 0.00 0.00 0.00 75 1018.5
20260502061535 1 0 0.0 0.0 0.00 0.00 0.00 74 1018.6
20260502061434 1 0 0.0 0.0 0.00 0.00 0.00 74 1018.6
20260502061335 1 0 0.0 0.0 0.00 0.00 0.00 74 1018.6
20260502061235 1 0 0.0 0.0 0.00 0.00 0.00 74 1018.6
20260502061135 1 0 0.0 0.0 0.00 0.00 0.00 73 1018.6
20260502061034 1 0 0.0 0.0 0.00 0.00 0.00 74 1018.6
20260502060934 1 0 0.0 0.0 0.00 0.00 0.00 73 1018.6
20260502060834 1 0 0.0 0.0 0.00 0.00 0.00 73 1018.6
20260502060735 1 0 0.0 0.0 0.00 0.00 0.00 73 1018.6
20260502060635 1 0 0.0 0.0 0.00 0.00 0.00 73 1018.6
20260502060534 1 0 0.0 0.0 0.00 0.00 0.00 73 1018.5
20260502060434 1 0 0.0 0.0 0.00 0.00 0.00 74 1018.6
20260502060334 1 0 0.0 0.0 0.00 0.00 0.00 73 1018.6
20260502060235 1 0 0.0 0.0 0.00 0.00 0.00 74 1018.5
20260502060135 1 0 0.0 0.0 0.00 0.00 0.00 74 1018.6
20260502060035 1 0 0.0 0.0 0.00 0.00 0.00 74 1018.5
20260502055934 1 0 0.0 0.0 0.00 0.00 0.00 74 1018.6
20260502055835 1 0 0.0 0.0 0.00 0.00 0.00 74 1018.5
20260502055735 1 0 0.0 0.0 0.00 0.00 0.00 74 1018.6
20260502055634 1 0 0.0 0.0 0.00 0.00 0.00 74 1018.5
20260502055534 1 0 0.0 0.0 0.00 0.00 0.00 74 1018.6
20260502055434 1 0 0.0 0.0 0.00 0.00 0.00 74 1018.6
20260502055335 1 0 0.0 0.0 0.00 0.00 0.00 74 1018.5
20260502055235 1 0 0.0 0.0 0.00 0.00 0.00 74 1018.6
20260502055134 1 0 0.0 0.0 0.00 0.00 0.00 74 1018.6
20260502055035 1 0 0.0 0.0 0.00 0.00 0.00 74 1018.5
20260502054935 1 0 0.0 0.0 0.00 0.00 0.00 73 1018.5
20260502054834 1 0 0.0 0.0 0.00 0.00 0.00 73 1018.5
20260502054735 1 0 0.0 0.0 0.00 0.00 0.00 73 1018.5
20260502054634 1 0 0.0 0.0 0.00 0.00 0.00 73 1018.5
20260502054535 1 0 0.0 0.0 0.00 0.00 0.00 73 1018.5
20260502054434 1 0 0.0 0.0 0.00 0.00 0.00 74 1018.5
20260502054334 1 0 0.0 0.0 0.00 0.00 0.00 74 1018.5
20260502054234 1 0 0.0 0.0 0.00 0.00 0.00 74 1018.5
20260502054135 1 0 0.0 0.0 0.00 0.00 0.00 74 1018.5
20260502054035 1 0 0.0 0.0 0.00 0.00 0.00 74 1018.5
20260502053935 1 0 0.0 0.0 0.00 0.00 0.00 74 1018.5
20260502053834 1 0 0.0 0.0 0.00 0.00 0.00 74 1018.5
20260502053735 1 0 0.0 0.0 0.00 0.00 0.00 74 1018.5
20260502053634 1 0 0.0 0.0 0.00 0.00 0.00 74 1018.5
20260502053535 1 0 0.0 0.0 0.00 0.00 0.00 74 1018.5
20260502053434 1 0 0.0 0.0 0.00 0.00 0.00 74 1018.5
20260502053334 1 0 0.0 0.0 0.00 0.00 0.00 74 1018.5
20260502053235 1 0 0.0 0.0 0.00 0.00 0.00 74 1018.5
20260502053134 1 0 0.0 0.0 0.00 0.00 0.00 74 1018.5
20260502053034 1 0 0.0 0.0 0.00 0.00 0.00 74 1018.5
20260502052935 1 0 0.0 0.0 0.00 0.00 0.00 74 1018.4
20260502052835 1 0 0.0 0.0 0.00 0.00 0.00 73 1018.5
20260502052734 1 0 0.0 0.0 0.00 0.00 0.00 73 1018.4
20260502052634 1 0 0.0 0.0 0.00 0.00 0.00 73 1018.4
20260502052534 1 0 0.0 0.0 0.00 0.00 0.00 73 1018.4
20260502052436 1 0 0.0 0.0 0.00 0.00 0.00 73 1018.4
20260502052334 1 0 0.0 0.0 0.00 0.00 0.00 73 1018.4
20260502052234 1 0 0.0 0.0 0.00 0.00 0.00 73 1018.4
20260502052135 1 0 0.0 0.0 0.00 0.00 0.00 73 1018.4
20260502052034 1 0 0.0 0.0 0.00 0.00 0.00 73 1018.4
20260502051934 1 0 0.0 0.0 0.00 0.00 0.00 73 1018.4
20260502051835 1 0 0.0 0.0 0.00 0.00 0.00 73 1018.4
20260502051734 1 0 0.0 0.0 0.00 0.00 0.00 73 1018.5
20260502051635 1 0 0.0 0.0 0.00 0.00 0.00 73 1018.5
20260502051534 1 0 0.0 0.0 0.00 0.00 0.00 73 1018.5
20260502051434 1 0 0.0 0.0 0.00 0.00 0.00 73 1018.4
20260502051335 1 0 0.0 0.0 0.00 0.00 0.00 73 1018.5
20260502051234 1 0 0.0 0.0 0.00 0.00 0.00 73 1018.5
20260502051134 1 0 0.0 0.0 0.00 0.00 0.00 73 1018.5
20260502051034 1 0 0.0 0.0 0.00 0.00 0.00 73 1018.4
20260502050935 1 0 0.0 0.0 0.00 0.00 0.00 74 1018.4
20260502050834 1 0 0.0 0.0 0.00 0.00 0.00 73 1018.4
20260502050734 1 0 0.0 0.0 0.00 0.00 0.00 73 1018.4
20260502050635 1 0 0.0 0.0 0.00 0.00 0.00 73 1018.5
20260502050535 1 0 0.0 0.0 0.00 0.00 0.00 73 1018.4
20260502050434 1 0 0.0 0.0 0.00 0.00 0.00 73 1018.4
20260502050334 1 0 0.0 0.0 0.00 0.00 0.00 73 1018.4
20260502050235 1 0 0.0 0.0 0.00 0.00 0.00 73 1018.3
20260502050134 1 0 0.0 0.0 0.00 0.00 0.00 74 1018.3
20260502050035 1 0 0.0 0.0 0.00 0.00 0.00 74 1018.3
20260502045934 1 0 0.0 0.0 0.00 0.00 0.00 74 1018.3
20260502045834 1 0 0.0 0.0 0.00 0.00 0.00 74 1018.3
20260502045735 1 0 0.0 0.0 0.00 0.00 0.00 74 1018.3
20260502045634 1 0 0.0 0.0 0.00 0.00 0.00 73 1018.3
20260502045534 1 0 0.0 0.0 0.00 0.00 0.00 73 1018.3
20260502045434 1 0 0.0 0.0 0.00 0.00 0.00 74 1018.2
20260502045335 1 0 0.0 0.0 0.00 0.00 0.00 73 1018.3
20260502045234 1 0 0.0 0.0 0.00 0.00 0.00 73 1018.3
20260502045134 1 0 0.0 0.0 0.00 0.00 0.00 73 1018.3
20260502045035 1 0 0.0 0.0 0.00 0.00 0.00 73 1018.3
20260502044934 1 0 0.0 0.0 0.00 0.00 0.00 73 1018.3
20260502044834 1 0 0.0 0.0 0.00 0.00 0.00 73 1018.3
20260502044735 1 0 0.0 0.0 0.00 0.00 0.00 73 1018.3
20260502044634 1 0 0.0 0.0 0.00 0.00 0.00 72 1018.3
20260502044534 1 0 0.0 0.0 0.00 0.00 0.00 73 1018.3
20260502044434 1 0 0.0 0.0 0.00 0.00 0.00 73 1018.3
20260502044335 2 0 0.0 0.0 0.00 0.00 0.00 73 1018.3
20260502044235 2 0 0.0 0.0 0.00 0.00 0.00 72 1018.2
20260502044134 2 0 0.0 0.0 0.00 0.00 0.00 72 1018.3
20260502044034 2 0 0.0 0.0 0.00 0.00 0.00 72 1018.3
20260502043934 2 0 0.0 0.0 0.00 0.00 0.00 72 1018.3
20260502043835 2 0 0.0 0.0 0.00 0.00 0.00 70 1018.3
20260502043734 2 0 0.0 0.0 0.00 0.00 0.00 70 1018.3
20260502043634 2 0 0.0 0.0 0.00 0.00 0.00 70 1018.3
20260502043534 2 0 0.0 0.0 0.00 0.00 0.00 70 1018.3
20260502043434 2 0 0.0 0.0 0.00 0.00 0.00 70 1018.2
20260502043335 2 0 0.0 0.0 0.00 0.00 0.00 70 1018.3
20260502043234 2 0 0.0 0.0 0.00 0.00 0.00 70 1018.2
20260502043134 1 0 0.0 0.0 0.00 0.00 0.00 70 1018.3
20260502043035 1 0 0.0 0.0 0.00 0.00 0.00 70 1018.2
20260502042934 1 0 0.0 0.0 0.00 0.00 0.00 70 1018.2
20260502042834 1 0 0.0 0.0 0.00 0.00 0.00 71 1018.3
20260502042734 1 0 0.0 0.0 0.00 0.00 0.00 71 1018.3
20260502042634 1 0 0.0 0.0 0.00 0.00 0.00 71 1018.2
20260502042534 1 0 0.0 0.0 0.00 0.00 0.00 72 1018.2
20260502042434 1 0 0.0 0.0 0.00 0.00 0.00 72 1018.2
20260502042335 1 0 0.0 0.0 0.00 0.00 0.00 72 1018.3
20260502042234 1 0 0.0 0.0 0.00 0.00 0.00 72 1018.3
20260502042134 1 0 0.0 0.0 0.00 0.00 0.00 71 1018.3
20260502042034 1 0 0.0 0.0 0.00 0.00 0.00 70 1018.2
20260502041935 2 0 0.0 0.0 0.00 0.00 0.00 69 1018.2
20260502041834 2 0 0.0 0.0 0.00 0.00 0.00 70 1018.3
20260502041734 2 0 0.0 0.0 0.00 0.00 0.00 70 1018.3
20260502041634 2 0 0.0 0.0 0.00 0.00 0.00 70 1018.2
20260502041534 2 0 0.0 0.0 0.00 0.00 0.00 70 1018.2
20260502041434 2 0 0.0 0.0 0.00 0.00 0.00 70 1018.3
20260502041334 2 0 0.0 0.0 0.00 0.00 0.00 69 1018.2
20260502041234 2 0 0.0 0.0 0.00 0.00 0.00 68 1018.3
20260502041134 2 0 0.0 0.0 0.00 0.00 0.00 68 1018.2
20260502041035 2 0 0.0 0.0 0.00 0.00 0.00 68 1018.3
20260502040934 2 0 0.0 0.0 0.00 0.00 0.00 68 1018.3
20260502040834 2 0 0.0 0.0 0.00 0.00 0.00 68 1018.3
20260502040734 2 0 0.0 0.0 0.00 0.00 0.00 68 1018.3
20260502040634 2 0 0.0 0.0 0.00 0.00 0.00 68 1018.3
20260502040535 2 0 0.0 0.0 0.00 0.00 0.00 68 1018.4
20260502040434 2 0 0.0 0.0 0.00 0.00 0.00 68 1018.3
20260502040335 2 0 0.0 0.0 0.00 0.00 0.00 67 1018.3
20260502040234 2 0 0.0 0.0 0.00 0.00 0.00 66 1018.3
20260502040134 2 0 0.0 0.0 0.00 0.00 0.00 66 1018.3
20260502040034 2 0 0.0 0.0 0.00 0.00 0.00 66 1018.3
20260502035934 2 0 0.0 0.0 0.00 0.00 0.00 66 1018.4
20260502035834 3 0 0.0 0.0 0.00 0.00 0.00 66 1018.4
20260502035734 3 0 0.0 0.0 0.00 0.00 0.00 66 1018.4
20260502035634 3 0 0.0 0.0 0.00 0.00 0.00 66 1018.5
20260502035534 3 0 0.0 0.0 0.00 0.00 0.00 66 1018.4
20260502035434 3 0 0.0 0.0 0.00 0.00 0.00 66 1018.4
20260502035334 3 0 0.0 0.0 0.00 0.00 0.00 66 1018.4
20260502035234 3 0 0.0 0.0 0.00 0.00 0.00 66 1018.4
20260502035134 3 0 0.0 0.0 0.00 0.00 0.00 66 1018.4
20260502035034 3 0 0.0 0.0 0.00 0.00 0.00 65 1018.4
20260502034933 3 0 0.0 0.0 0.00 0.00 0.00 64 1018.4
20260502034834 3 0 0.0 0.0 0.00 0.00 0.00 64 1018.4
20260502034734 3 0 0.0 0.0 0.00 0.00 0.00 64 1018.4
20260502034635 3 0 0.0 0.0 0.00 0.00 0.00 64 1018.4
20260502034535 3 0 0.0 0.0 0.00 0.00 0.00 63 1018.4
20260502034434 3 0 0.0 0.0 0.00 0.00 0.00 62 1018.4
20260502034334 3 0 0.0 0.0 0.00 0.00 0.00 62 1018.4
20260502034233 3 0 0.0 0.0 0.00 0.00 0.00 62 1018.4
20260502034134 3 0 0.0 0.0 0.00 0.00 0.00 62 1018.4
20260502034034 3 0 0.0 0.0 0.00 0.00 0.00 62 1018.4
20260502033934 4 0 0.0 0.0 0.00 0.00 0.00 62 1018.5
20260502033834 3 0 0.0 0.0 0.00 0.00 0.00 61 1018.4
20260502033734 3 0 0.0 0.0 0.00 0.00 0.00 61 1018.5
20260502033633 3 0 0.0 0.0 0.00 0.00 0.00 61 1018.5
20260502033534 3 0 0.0 0.0 0.00 0.00 0.00 61 1018.5
20260502033434 3 0 0.0 0.0 0.00 0.00 0.00 62 1018.5
20260502033334 3 0 0.0 0.0 0.00 0.00 0.00 62 1018.5
20260502033235 3 0 0.0 0.0 0.00 0.00 0.00 62 1018.5
20260502033134 3 0 0.0 0.0 0.00 0.00 0.00 61 1018.5
20260502033034 3 0 0.0 0.0 0.00 0.00 0.00 61 1018.4
20260502032934 3 0 0.0 0.0 0.00 0.00 0.00 61 1018.5
20260502032834 3 0 0.0 0.0 0.00 0.00 0.00 61 1018.5
20260502032735 3 0 0.0 0.0 0.00 0.00 0.00 61 1018.4
20260502032634 3 0 0.0 0.0 0.00 0.00 0.00 61 1018.4
20260502032533 3 0 0.0 0.0 0.00 0.00 0.00 62 1018.4
20260502032434 3 0 0.0 0.0 0.00 0.00 0.00 61 1018.4
20260502032334 3 0 0.0 0.0 0.00 0.00 0.00 61 1018.4
20260502032234 3 0 0.0 0.0 0.00 0.00 0.00 61 1018.4
20260502032133 3 0 0.0 0.0 0.00 0.00 0.00 62 1018.4
20260502032033 3 0 0.0 0.0 0.00 0.00 0.00 61 1018.4
20260502031934 3 0 0.0 0.0 0.00 0.00 0.00 61 1018.4
20260502031834 3 0 0.0 0.0 0.00 0.00 0.00 61 1018.4
20260502031734 4 0 0.0 0.0 0.00 0.00 0.00 61 1018.4
20260502031634 4 0 0.0 0.0 0.00 0.00 0.00 61 1018.4
20260502031534 4 0 0.0 0.0 0.00 0.00 0.00 61 1018.4
20260502031434 4 0 0.0 0.0 0.00 0.00 0.00 61 1018.4
20260502031334 4 0 0.0 0.0 0.00 0.00 0.00 61 1018.4
20260502031234 4 0 0.0 0.0 0.00 0.00 0.00 61 1018.4
20260502031134 4 0 0.0 0.0 0.00 0.00 0.00 62 1018.4
20260502031034 4 0 0.0 0.0 0.00 0.00 0.00 62 1018.4
20260502030934 4 0 0.0 0.0 0.00 0.00 0.00 62 1018.4
20260502030834 4 0 0.0 0.0 0.00 0.00 0.00 61 1018.4
20260502030734 4 0 0.0 0.0 0.00 0.00 0.00 61 1018.3
20260502030635 4 0 0.0 0.0 0.00 0.00 0.00 61 1018.3
20260502030534 4 0 0.0 0.0 0.00 0.00 0.00 61 1018.4
20260502030433 4 0 0.0 0.0 0.00 0.00 0.00 60 1018.3
20260502030334 4 0 0.0 0.0 0.00 0.00 0.00 59 1018.3
20260502030234 4 0 0.0 0.0 0.00 0.00 0.00 59 1018.3
20260502030134 4 0 0.0 0.0 0.00 0.00 0.00 59 1018.4
20260502030033 4 0 0.0 0.0 0.00 0.00 0.00 59 1018.3
20260502025934 5 0 0.0 0.0 0.00 0.00 0.00 59 1018.3
20260502025834 5 0 0.0 0.0 0.00 0.00 0.00 58 1018.3
20260502025735 5 0 0.0 0.0 0.00 0.00 0.00 58 1018.3
20260502025633 5 0 0.0 0.0 0.00 0.00 0.00 58 1018.3
20260502025533 5 0 0.0 0.0 0.00 0.00 0.00 57 1018.3
20260502025434 5 0 0.0 0.0 0.00 0.00 0.00 57 1018.3
20260502025334 5 0 0.0 0.0 0.00 0.00 0.00 57 1018.4
20260502025234 5 0 0.0 0.0 0.00 0.00 0.00 57 1018.3
20260502025134 5 0 0.0 0.0 0.00 0.00 0.00 58 1018.3
20260502025034 5 0 0.0 0.0 0.00 0.00 0.00 58 1018.4
20260502024933 5 0 0.0 0.0 0.00 0.00 0.00 58 1018.3
20260502024833 5 0 0.0 0.0 0.00 0.00 0.00 57 1018.3
20260502024734 5 0 0.0 0.0 0.00 0.00 0.00 57 1018.4
20260502024634 5 0 0.0 0.0 0.00 0.00 0.00 57 1018.3
20260502024534 5 0 0.0 0.0 0.00 0.00 0.00 57 1018.3
20260502024434 6 0 0.0 0.0 0.00 0.00 0.00 55 1018.3
20260502024333 6 0 0.0 0.0 0.00 0.00 0.00 55 1018.3
20260502024233 6 0 0.0 0.0 0.00 0.00 0.00 55 1018.3
20260502024134 6 0 0.0 0.0 0.00 0.00 0.00 55 1018.3
20260502024034 6 0 0.0 0.0 0.00 0.00 0.00 55 1018.3
20260502023934 6 0 0.0 0.0 0.00 0.00 0.00 54 1018.3
20260502023834 6 0 0.0 0.0 0.00 0.00 0.00 54 1018.3
20260502023734 6 0 0.0 0.0 0.00 0.00 0.00 54 1018.3
20260502023634 6 0 0.0 0.0 0.00 0.00 0.00 54 1018.3
20260502023534 6 0 0.0 0.0 0.00 0.00 0.00 53 1018.3
20260502023433 6 0 0.0 0.0 0.00 0.00 0.00 53 1018.3
20260502023334 6 0 0.0 0.0 0.00 0.00 0.00 53 1018.2
20260502023234 6 0 0.0 0.0 0.00 0.00 0.00 53 1018.2
20260502023134 6 0 0.0 0.0 0.00 0.00 0.00 53 1018.3
20260502023033 6 0 0.0 0.0 0.00 0.00 0.00 53 1018.2
20260502022934 6 0 0.0 0.0 0.00 0.00 0.00 53 1018.2
20260502022834 6 0 0.0 0.0 0.00 0.00 0.00 53 1018.2
20260502022734 6 0 0.0 0.0 0.00 0.00 0.00 53 1018.2
20260502022634 6 0 0.0 0.0 0.00 0.00 0.00 53 1018.2
20260502022534 6 0 0.0 0.0 0.00 0.00 0.00 53 1018.2
20260502022434 6 0 0.0 0.0 0.00 0.00 0.00 53 1018.2
20260502022333 6 0 0.0 0.0 0.00 0.00 0.00 53 1018.2
20260502022134 6 0 0.0 0.0 0.00 0.00 0.00 52 1018.2
20260502022034 6 0 0.0 0.0 0.00 0.00 0.00 52 1018.1
20260502021934 6 0 0.0 0.0 0.00 0.00 0.00 52 1018.1
20260502021833 6 0 0.0 0.0 0.00 0.00 0.00 52 1018.1
20260502021734 6 0 0.0 0.0 0.00 0.00 0.00 52 1018.1
20260502021634 6 0 0.0 0.0 0.00 0.00 0.00 52 1018.1
20260502021533 6 0 0.0 0.0 0.00 0.00 0.00 52 1018.1
20260502021433 6 0 0.0 0.0 0.00 0.00 0.00 52 1018.1
20260502021334 6 0 0.0 0.0 0.00 0.00 0.00 52 1018.1
20260502021233 6 0 0.0 0.0 0.00 0.00 0.00 52 1018.1
20260502021134 6 0 0.0 0.0 0.00 0.00 0.00 52 1018.1
20260502021034 7 0 0.0 0.0 0.00 0.00 0.00 52 1018.0
20260502020933 7 0 0.0 0.0 0.00 0.00 0.00 52 1018.0
20260502020834 7 0 0.0 0.0 0.00 0.00 0.00 51 1018.1
20260502020734 7 0 0.0 0.0 0.00 0.00 0.00 51 1018.0
20260502020633 7 0 0.0 0.0 0.00 0.00 0.00 51 1018.0
20260502020533 7 0 0.0 0.0 0.00 0.00 0.00 51 1018.0
20260502020433 7 0 0.0 0.0 0.00 0.00 0.00 51 1018.0
20260502020334 7 0 0.0 0.0 0.00 0.00 0.00 51 1018.0
20260502020234 7 0 0.0 0.0 0.00 0.00 0.00 51 1018.0
20260502020134 7 0 0.0 0.0 0.00 0.00 0.00 51 1018.0
20260502020033 7 0 0.0 0.0 0.00 0.00 0.00 51 1018.0
20260502015934 7 0 0.0 0.0 0.00 0.00 0.00 51 1018.0
20260502015834 7 0 0.0 0.0 0.00 0.00 0.00 52 1018.0
20260502015734 7 0 0.0 0.0 0.00 0.00 0.00 52 1018.0
20260502015633 7 0 0.0 0.0 0.00 0.00 0.00 52 1018.0
20260502015533 7 0 0.0 0.0 0.00 0.00 0.00 52 1018.0
20260502015434 7 0 0.0 0.0 0.00 0.00 0.00 52 1018.0
20260502015335 7 0 0.0 0.0 0.00 0.00 0.00 52 1017.9
20260502015233 7 356 0.0 1.6 0.00 0.00 0.00 52 1017.9
20260502015133 7 356 0.0 1.6 0.00 0.00 0.00 52 1018.0
20260502015034 7 356 0.0 1.6 0.00 0.00 0.00 52 1018.0
20260502014934 7 356 0.0 1.6 0.00 0.00 0.00 52 1018.0
20260502014833 7 356 0.0 1.6 0.00 0.00 0.00 52 1017.9
20260502014734 7 356 0.0 1.6 0.00 0.00 0.00 51 1017.9
20260502014634 7 356 0.0 1.6 0.00 0.00 0.00 51 1017.9
20260502014533 7 356 0.0 1.6 0.00 0.00 0.00 50 1017.9
20260502014433 7 356 0.0 1.6 0.00 0.00 0.00 50 1017.9
20260502014333 7 356 0.0 1.6 0.00 0.00 0.00 50 1017.9
20260502014234 7 0 0.0 0.0 0.00 0.00 0.00 51 1017.9
20260502014133 7 0 0.0 0.0 0.00 0.00 0.00 50 1017.8
20260502014033 7 0 0.0 0.0 0.00 0.00 0.00 49 1017.8
20260502013933 8 40 0.0 1.6 0.00 0.00 0.00 49 1017.8
20260502013834 8 33 0.0 1.6 0.00 0.00 0.00 49 1017.8
20260502013734 8 33 0.0 1.6 0.00 0.00 0.00 49 1017.8
20260502013634 8 33 0.0 1.6 0.00 0.00 0.00 48 1017.8
20260502013533 8 33 0.0 1.6 0.00 0.00 0.00 48 1017.7
20260502013433 8 30 0.0 1.6 0.00 0.00 0.00 48 1017.8
20260502013334 8 27 0.0 1.6 0.00 0.00 0.00 48 1017.8
20260502013234 8 27 0.0 1.6 0.00 0.00 0.00 47 1017.7
20260502013134 8 24 0.0 1.6 0.00 0.00 0.00 47 1017.7
20260502013033 8 10 0.0 4.8 0.00 0.00 0.00 47 1017.7
20260502012933 8 3 0.0 4.8 0.00 0.00 0.00 47 1017.7
20260502012834 8 3 0.0 4.8 0.00 0.00 0.00 47 1017.8
20260502012733 8 3 0.0 4.8 0.00 0.00 0.00 47 1017.8
20260502012633 8 3 0.0 4.8 0.00 0.00 0.00 47 1017.8
20260502012534 8 3 0.0 4.8 0.00 0.00 0.00 47 1017.7
20260502012433 8 2 0.0 4.8 0.00 0.00 0.00 47 1017.7
20260502012334 8 1 0.0 4.8 0.00 0.00 0.00 47 1017.7
20260502012233 8 1 0.0 4.8 0.00 0.00 0.00 46 1017.7
20260502012133 8 1 0.0 4.8 0.00 0.00 0.00 46 1017.7
20260502012034 8 357 0.0 4.8 0.00 0.00 0.00 47 1017.7
20260502011934 8 355 0.0 4.8 0.00 0.00 0.00 46 1017.7
20260502011834 8 349 0.0 6.4 0.00 0.00 0.00 46 1017.7
20260502011733 8 342 0.0 6.4 0.00 0.00 0.00 46 1017.7
20260502011633 8 341 1.6 6.4 0.00 0.00 0.00 46 1017.6
20260502011534 8 341 1.6 6.4 0.00 0.00 0.00 46 1017.6
20260502011433 8 341 1.6 6.4 0.00 0.00 0.00 46 1017.7
20260502011333 8 341 1.6 6.4 0.00 0.00 0.00 46 1017.7
20260502011234 8 341 1.6 6.4 0.00 0.00 0.00 47 1017.7
20260502011133 8 341 1.6 6.4 0.00 0.00 0.00 46 1017.7
20260502011033 9 340 1.6 6.4 0.00 0.00 0.00 45 1017.6
20260502010933 9 341 1.6 6.4 0.00 0.00 0.00 45 1017.6
20260502010834 9 341 1.6 6.4 0.00 0.00 0.00 45 1017.7
20260502010733 9 344 0.0 6.4 0.00 0.00 0.00 45 1017.7
20260502010633 9 345 0.0 6.4 0.00 0.00 0.00 45 1017.7
20260502010533 9 347 1.6 6.4 0.00 0.00 0.00 46 1017.7
20260502010434 9 348 1.6 6.4 0.00 0.00 0.00 46 1017.7
20260502010333 9 347 1.6 8.0 0.00 0.00 0.00 45 1017.6
20260502010233 9 345 1.6 8.0 0.00 0.00 0.00 45 1017.6
20260502010133 9 341 3.2 9.7 0.00 0.00 0.00 44 1017.6
20260502010034 9 338 3.2 12.9 0.00 0.00 0.00 44 1017.6
20260502005933 9 336 4.8 12.9 0.00 0.00 0.00 43 1017.6
20260502005833 9 336 4.8 12.9 0.00 0.00 0.00 43 1017.6
20260502005733 9 336 6.4 12.9 0.00 0.00 0.00 43 1017.6
20260502005634 9 335 6.4 12.9 0.00 0.00 0.00 43 1017.5
20260502005533 9 334 6.4 12.9 0.00 0.00 0.00 43 1017.5
20260502005433 9 333 6.4 12.9 0.00 0.00 0.00 43 1017.5
20260502005333 9 332 6.4 12.9 0.00 0.00 0.00 42 1017.4
20260502005234 9 332 6.4 12.9 0.00 0.00 0.00 41 1017.6
20260502005133 9 332 4.8 12.9 0.00 0.00 0.00 41 1017.5
20260502005033 9 333 4.8 12.9 0.00 0.00 0.00 41 1017.5
20260502004933 9 334 3.2 12.9 0.00 0.00 0.00 41 1017.4
20260502004834 9 334 3.2 12.9 0.00 0.00 0.00 43 1017.4
20260502004733 9 334 3.2 9.7 0.00 0.00 0.00 43 1017.4
20260502004633 9 335 3.2 8.0 0.00 0.00 0.00 44 1017.4
20260502004533 9 336 3.2 8.0 0.00 0.00 0.00 44 1017.4
20260502004434 9 336 3.2 11.3 0.00 0.00 0.00 44 1017.4
20260502004333 10 336 3.2 11.3 0.00 0.00 0.00 44 1017.4
20260502004234 10 338 4.8 11.3 0.00 0.00 0.00 43 1017.4
20260502004133 10 340 4.8 11.3 0.00 0.00 0.00 43 1017.3
20260502004033 10 341 4.8 12.9 0.00 0.00 0.00 43 1017.3
20260502003933 10 343 4.8 12.9 0.00 0.00 0.00 43 1017.3
20260502003833 10 343 4.8 12.9 0.00 0.00 0.00 42 1017.3
20260502003733 10 345 4.8 12.9 0.00 0.00 0.00 42 1017.3
20260502003633 10 347 4.8 12.9 0.00 0.00 0.00 43 1017.3
20260502003533 10 347 4.8 12.9 0.00 0.00 0.00 42 1017.3
20260502003433 10 351 4.8 12.9 0.00 0.00 0.00 42 1017.3
20260502003333 10 350 4.8 12.9 0.00 0.00 0.00 42 1017.3
20260502003233 10 346 4.8 14.5 0.00 0.00 0.00 42 1017.3
20260502003133 10 343 4.8 14.5 0.00 0.00 0.00 42 1017.2
20260502003033 10 343 4.8 14.5 0.00 0.00 0.00 43 1017.2
20260502002933 10 341 4.8 14.5 0.00 0.00 0.00 44 1017.3
20260502002833 10 338 4.8 14.5 0.00 0.00 0.00 43 1017.3
20260502002733 10 336 6.4 14.5 0.00 0.00 0.00 43 1017.3
20260502002633 10 336 6.4 14.5 0.00 0.00 0.00 43 1017.3
20260502002534 10 336 6.4 14.5 0.00 0.00 0.00 43 1017.2
20260502002433 10 334 6.4 14.5 0.00 0.00 0.00 40 1017.2
20260502002334 10 334 6.4 14.5 0.00 0.00 0.00 41 1017.1
20260502002233 10 334 6.4 12.9 0.00 0.00 0.00 43 1017.2
20260502002133 10 334 6.4 12.9 0.00 0.00 0.00 43 1017.2
20260502002033 10 334 8.0 12.9 0.00 0.00 0.00 42 1017.2
20260502001934 10 334 8.0 12.9 0.00 0.00 0.00 40 1017.2
20260502001833 10 334 6.4 12.9 0.00 0.00 0.00 40 1017.2
20260502001734 10 333 6.4 12.9 0.00 0.00 0.00 40 1017.2
20260502001633 10 333 6.4 12.9 0.00 0.00 0.00 40 1017.2
20260502001533 10 331 6.4 12.9 0.00 0.00 0.00 41 1017.1
20260502001433 10 331 6.4 14.5 0.00 0.00 0.00 40 1017.1
20260502001333 10 331 8.0 14.5 0.00 0.00 0.00 41 1017.1
20260502001233 10 332 8.0 14.5 0.00 0.00 0.00 42 1017.1
20260502001134 10 332 6.4 14.5 0.00 0.00 0.00 40 1017.1
20260502001033 10 334 8.0 14.5 0.00 0.00 0.00 40 1017.1
20260502000933 10 337 8.0 14.5 0.00 0.00 0.00 41 1017.1
20260502000833 10 338 8.0 14.5 0.00 0.00 0.00 41 1017.1
20260502000734 10 337 8.0 14.5 0.00 0.00 0.00 40 1017.1
20260502000633 10 337 8.0 14.5 0.00 0.00 0.00 39 1017.1
20260502000533 10 337 8.0 14.5 0.00 0.00 0.00 41 1017.0
20260502000434 10 337 8.0 14.5 0.00 0.00 0.00 40 1017.0
20260502000333 10 335 8.0 16.1 0.00 0.00 0.00 41 1017.1
20260502000234 10 334 8.0 16.1 0.00 0.00 0.00 41 1017.0
20260502000133 10 335 8.0 16.1 0.00 0.00 0.00 42 1017.1
20260502000033 10 334 8.0 16.1 0.00 0.00 0.00 41 1017.1
20260501235933 10 334 8.0 16.1 0.00 0.00 0.00 41 1017.1
20260501235834 10 333 8.0 16.1 0.00 0.00 0.00 40 1017.0
20260501235733 10 334 8.0 16.1 0.00 0.00 0.00 39 1017.1
20260501235633 10 334 8.0 16.1 0.00 0.00 0.00 39 1017.1
20260501235534 10 336 8.0 16.1 0.00 0.00 0.00 40 1017.0
20260501235433 10 339 6.4 16.1 0.00 0.00 0.00 40 1017.0
20260501235333 10 342 6.4 14.5 0.00 0.00 0.00 39 1017.1
20260501235233 10 342 8.0 14.5 0.00 0.00 0.00 39 1017.1
20260501235133 10 341 8.0 14.5 0.00 0.00 0.00 40 1017.1
20260501235033 10 340 8.0 14.5 0.00 0.00 0.00 38 1017.1
20260501234933 10 338 8.0 14.5 0.00 0.00 0.00 39 1017.1
20260501234833 10 340 8.0 14.5 0.00 0.00 0.00 40 1017.2
20260501234733 11 339 8.0 14.5 0.00 0.00 0.00 39 1017.1
20260501234634 10 338 8.0 14.5 0.00 0.00 0.00 42 1017.1
20260501234534 10 337 8.0 14.5 0.00 0.00 0.00 41 1017.2
20260501234433 10 336 9.7 17.7 0.00 0.00 0.00 40 1017.2
20260501234334 10 335 9.7 17.7 0.00 0.00 0.00 41 1017.2
20260501234233 10 335 9.7 17.7 0.00 0.00 0.00 40 1017.1
20260501234133 10 336 9.7 17.7 0.00 0.00 0.00 39 1017.1
20260501234033 10 335 9.7 17.7 0.00 0.00 0.00 38 1017.1
20260501233933 10 337 9.7 17.7 0.00 0.00 0.00 40 1017.1
20260501233833 10 337 9.7 17.7 0.00 0.00 0.00 40 1017.1
20260501233733 10 339 9.7 17.7 0.00 0.00 0.00 40 1017.1
20260501233633 10 340 9.7 17.7 0.00 0.00 0.00 39 1017.1
20260501233533 10 341 9.7 17.7 0.00 0.00 0.00 39 1017.1
20260501233433 10 342 8.0 16.1 0.00 0.00 0.00 42 1017.1
20260501233333 10 342 8.0 16.1 0.00 0.00 0.00 42 1017.1
20260501233233 10 343 8.0 16.1 0.00 0.00 0.00 41 1017.0
20260501233133 10 344 8.0 16.1 0.00 0.00 0.00 40 1017.0
20260501233033 10 349 6.4 16.1 0.00 0.00 0.00 41 1017.1
20260501232933 10 346 6.4 16.1 0.00 0.00 0.00 40 1017.0
20260501232832 10 348 6.4 16.1 0.00 0.00 0.00 40 1017.0
20260501232733 10 348 6.4 17.7 0.00 0.00 0.00 41 1017.1
20260501232633 11 346 6.4 17.7 0.00 0.00 0.00 40 1017.1
20260501232533 11 346 8.0 17.7 0.00 0.00 0.00 40 1017.0
20260501232432 11 349 8.0 17.7 0.00 0.00 0.00 39 1017.0
20260501232333 11 350 6.4 17.7 0.00 0.00 0.00 40 1017.1
20260501232233 11 349 8.0 17.7 0.00 0.00 0.00 39 1017.0
20260501232133 11 348 8.0 17.7 0.00 0.00 0.00 39 1017.0
20260501232033 11 345 6.4 17.7 0.00 0.00 0.00 40 1017.0
20260501231933 11 344 8.0 17.7 0.00 0.00 0.00 40 1017.0
20260501231833 10 343 8.0 17.7 0.00 0.00 0.00 41 1017.0
20260501231732 10 341 8.0 14.5 0.00 0.00 0.00 39 1017.0
20260501231633 10 342 8.0 16.1 0.00 0.00 0.00 41 1017.0
20260501231533 10 342 8.0 17.7 0.00 0.00 0.00 39 1017.0
20260501231433 10 341 8.0 17.7 0.00 0.00 0.00 40 1017.0
20260501231333 10 342 9.7 17.7 0.00 0.00 0.00 40 1017.0
20260501231233 10 341 9.7 17.7 0.00 0.00 0.00 39 1017.1
20260501231133 10 341 9.7 17.7 0.00 0.00 0.00 39 1017.1
20260501231033 10 343 11.3 17.7 0.00 0.00 0.00 38 1017.1
20260501230933 10 343 11.3 17.7 0.00 0.00 0.00 39 1017.1
20260501230832 10 343 9.7 17.7 0.00 0.00 0.00 39 1017.1
20260501230733 10 343 9.7 17.7 0.00 0.00 0.00 39 1017.1
20260501230633 10 343 9.7 17.7 0.00 0.00 0.00 40 1017.1
20260501230534 10 341 11.3 17.7 0.00 0.00 0.00 40 1017.1
20260501230432 10 339 11.3 20.9 0.00 0.00 0.00 40 1017.0
20260501230333 10 339 11.3 20.9 0.00 0.00 0.00 40 1017.0
20260501230233 10 338 11.3 20.9 0.00 0.00 0.00 40 1017.0
20260501230133 10 338 11.3 20.9 0.00 0.00 0.00 40 1017.0
20260501230032 10 338 11.3 20.9 0.00 0.00 0.00 41 1017.0
20260501225933 10 338 11.3 20.9 0.00 0.00 0.00 41 1017.0
20260501225833 10 338 11.3 20.9 0.00 0.00 0.00 40 1017.0
20260501225733 10 338 11.3 20.9 0.00 0.00 0.00 39 1017.0
20260501225633 10 338 12.9 20.9 0.00 0.00 0.00 39 1017.0
20260501225533 10 338 12.9 20.9 0.00 0.00 0.00 40 1017.0
20260501225432 10 338 11.3 19.3 0.00 0.00 0.00 41 1017.1
20260501225333 10 337 11.3 19.3 0.00 0.00 0.00 40 1017.0
20260501225233 10 336 11.3 19.3 0.00 0.00 0.00 39 1017.0
20260501225133 10 336 12.9 20.9 0.00 0.00 0.00 39 1017.1
20260501225033 10 336 14.5 25.7 0.00 0.00 0.00 39 1017.0
20260501224933 10 335 12.9 25.7 0.00 0.00 0.00 39 1017.0
20260501224832 10 334 12.9 25.7 0.00 0.00 0.00 38 1017.0
20260501224733 10 335 12.9 25.7 0.00 0.00 0.00 39 1017.0
20260501224633 11 334 12.9 25.7 0.00 0.00 0.00 38 1017.0
20260501224533 11 334 12.9 25.7 0.00 0.00 0.00 38 1017.0
20260501224432 11 334 12.9 25.7 0.00 0.00 0.00 38 1017.0
20260501224333 11 336 12.9 25.7 0.00 0.00 0.00 37 1017.0
20260501224233 11 337 12.9 25.7 0.00 0.00 0.00 38 1016.9
20260501224133 11 337 11.3 25.7 0.00 0.00 0.00 38 1017.0
20260501224033 11 339 11.3 19.3 0.00 0.00 0.00 39 1017.0
20260501223932 11 339 11.3 19.3 0.00 0.00 0.00 38 1017.0
20260501223833 11 340 11.3 19.3 0.00 0.00 0.00 38 1017.0
20260501223733 10 339 11.3 19.3 0.00 0.00 0.00 38 1017.0
20260501223632 11 341 11.3 19.3 0.00 0.00 0.00 38 1017.0
20260501223533 11 347 9.7 19.3 0.00 0.00 0.00 38 1017.0
20260501223434 11 347 9.7 17.7 0.00 0.00 0.00 40 1017.0
20260501223333 11 346 9.7 17.7 0.00 0.00 0.00 39 1017.0
20260501223232 11 345 11.3 17.7 0.00 0.00 0.00 39 1017.0
20260501223132 11 345 11.3 20.9 0.00 0.00 0.00 39 1016.9
20260501223033 11 343 11.3 24.1 0.00 0.00 0.00 36 1017.0
20260501222933 11 343 11.3 24.1 0.00 0.00 0.00 39 1016.9
20260501222832 11 341 9.7 24.1 0.00 0.00 0.00 39 1016.8
20260501222733 11 336 9.7 24.1 0.00 0.00 0.00 38 1017.0
20260501222633 11 329 9.7 24.1 0.00 0.00 0.00 39 1017.0
20260501222534 11 323 9.7 24.1 0.00 0.00 0.00 38 1017.0
20260501222432 11 322 9.7 24.1 0.00 0.00 0.00 38 1017.0
20260501222333 11 317 9.7 24.1 0.00 0.00 0.00 39 1017.0
20260501222233 11 312 9.7 24.1 0.00 0.00 0.00 40 1017.0
20260501222133 11 307 9.7 24.1 0.00 0.00 0.00 38 1016.9
20260501222032 11 305 8.0 22.5 0.00 0.00 0.00 40 1017.0
20260501221932 11 309 9.7 17.7 0.00 0.00 0.00 37 1016.9
20260501221833 11 314 9.7 25.7 0.00 0.00 0.00 38 1017.0
20260501221733 11 320 9.7 25.7 0.00 0.00 0.00 40 1017.0
20260501221632 11 325 9.7 25.7 0.00 0.00 0.00 40 1017.0
20260501221533 11 329 11.3 25.7 0.00 0.00 0.00 39 1017.0
20260501221433 11 327 11.3 25.7 0.00 0.00 0.00 41 1017.0
20260501221332 11 331 9.7 25.7 0.00 0.00 0.00 38 1016.9
20260501221233 11 334 9.7 25.7 0.00 0.00 0.00 40 1016.9
20260501221133 11 337 8.0 25.7 0.00 0.00 0.00 39 1017.0
20260501221032 11 340 8.0 25.7 0.00 0.00 0.00 38 1016.9
20260501220932 11 344 6.4 25.7 0.00 0.00 0.00 41 1017.0
20260501220833 11 346 6.4 20.9 0.00 0.00 0.00 38 1016.9
20260501220733 11 354 4.8 20.9 0.00 0.00 0.00 38 1016.9
20260501220632 11 5 4.8 20.9 0.00 0.00 0.00 39 1017.0
20260501220533 11 16 3.2 17.7 0.00 0.00 0.00 40 1016.9
20260501220433 11 47 1.6 11.3 0.00 0.00 0.00 40 1016.8
20260501220333 11 47 1.6 8.0 0.00 0.00 0.00 40 1016.9
20260501220232 11 37 3.2 11.3 0.00 0.00 0.00 40 1017.0
20260501220132 11 30 3.2 16.1 0.00 0.00 0.00 41 1016.9
20260501220033 11 17 3.2 16.1 0.00 0.00 0.00 40 1017.0
20260501215933 11 6 4.8 19.3 0.00 0.00 0.00 40 1016.9
20260501215832 11 359 6.4 19.3 0.00 0.00 0.00 39 1016.9
20260501215732 11 355 6.4 20.9 0.00 0.00 0.00 40 1016.9
20260501215633 11 355 8.0 20.9 0.00 0.00 0.00 40 1017.0
20260501215533 11 353 8.0 20.9 0.00 0.00 0.00 40 1017.0
20260501215432 11 352 8.0 20.9 0.00 0.00 0.00 40 1017.0
20260501215333 11 350 8.0 20.9 0.00 0.00 0.00 40 1017.0
20260501215233 11 351 8.0 20.9 0.00 0.00 0.00 40 1017.0
20260501215132 11 348 8.0 20.9 0.00 0.00 0.00 41 1017.0
20260501215032 11 347 8.0 20.9 0.00 0.00 0.00 40 1017.1
20260501214933 11 345 8.0 20.9 0.00 0.00 0.00 39 1016.9
20260501214833 11 346 8.0 20.9 0.00 0.00 0.00 42 1016.9
20260501214732 11 345 8.0 19.3 0.00 0.00 0.00 41 1016.9
20260501214632 11 338 6.4 16.1 0.00 0.00 0.00 40 1016.9
20260501214533 11 339 8.0 16.1 0.00 0.00 0.00 41 1016.9
20260501214432 11 341 8.0 16.1 0.00 0.00 0.00 40 1016.9
20260501214332 11 340 8.0 16.1 0.00 0.00 0.00 41 1016.9
20260501214233 11 336 8.0 17.7 0.00 0.00 0.00 41 1016.9
20260501214133 11 336 8.0 17.7 0.00 0.00 0.00 41 1017.0
20260501214033 11 337 8.0 17.7 0.00 0.00 0.00 40 1016.9
20260501213933 11 338 9.7 17.7 0.00 0.00 0.00 39 1017.0
20260501213833 11 337 9.7 19.3 0.00 0.00 0.00 41 1016.9
20260501213732 11 337 9.7 19.3 0.00 0.00 0.00 43 1016.9
20260501213632 10 338 11.3 22.5 0.00 0.00 0.00 42 1016.9
20260501213533 10 338 11.3 22.5 0.00 0.00 0.00 42 1016.9
20260501213432 10 337 12.9 22.5 0.00 0.00 0.00 44 1016.9
20260501213332 10 341 12.9 22.5 0.00 0.00 0.00 42 1016.9
20260501213233 10 344 12.9 22.5 0.00 0.00 0.00 41 1017.0
20260501213133 10 347 12.9 22.5 0.00 0.00 0.00 41 1017.0
20260501213032 10 347 12.9 22.5 0.00 0.00 0.00 41 1016.9
20260501212933 10 348 12.9 22.5 0.00 0.00 0.00 40 1017.0
20260501212833 10 348 12.9 22.5 0.00 0.00 0.00 41 1016.9
20260501212733 10 348 11.3 22.5 0.00 0.00 0.00 41 1017.0
20260501212632 10 350 11.3 22.5 0.00 0.00 0.00 43 1017.0
20260501212533 10 351 11.3 22.5 0.00 0.00 0.00 42 1016.9
20260501212433 11 352 9.7 22.5 0.00 0.00 0.00 41 1016.9
20260501212332 11 349 8.0 20.9 0.00 0.00 0.00 41 1016.9
20260501212232 11 350 8.0 20.9 0.00 0.00 0.00 42 1016.9
20260501212133 11 347 6.4 20.9 0.00 0.00 0.00 41 1016.9
20260501212033 11 349 6.4 19.3 0.00 0.00 0.00 43 1016.9
20260501211932 11 352 6.4 19.3 0.00 0.00 0.00 40 1016.9
20260501211833 10 352 6.4 19.3 0.00 0.00 0.00 40 1016.9
20260501211733 10 350 8.0 20.9 0.00 0.00 0.00 40 1016.9
20260501211632 10 348 8.0 20.9 0.00 0.00 0.00 44 1016.9
20260501211532 10 347 8.0 20.9 0.00 0.00 0.00 42 1016.8
20260501211432 10 346 8.0 20.9 0.00 0.00 0.00 42 1016.9
20260501211333 10 345 8.0 20.9 0.00 0.00 0.00 40 1016.8
20260501211232 10 344 8.0 20.9 0.00 0.00 0.00 41 1016.9
20260501211132 10 341 9.7 20.9 0.00 0.00 0.00 42 1016.9
20260501211033 10 339 9.7 20.9 0.00 0.00 0.00 43 1016.9
20260501210933 10 338 9.7 20.9 0.00 0.00 0.00 42 1017.0
20260501210832 10 338 8.0 20.9 0.00 0.00 0.00 41 1016.9
20260501210733 10 341 8.0 16.1 0.00 0.00 0.00 41 1016.9
20260501210632 10 344 6.4 16.1 0.00 0.00 0.00 42 1016.9
20260501210532 10 348 6.4 16.1 0.00 0.00 0.00 41 1017.0
20260501210432 10 352 6.4 16.1 0.00 0.00 0.00 40 1016.9
20260501210333 10 357 6.4 16.1 0.00 0.00 0.00 40 1016.8
20260501210232 10 359 8.0 16.1 0.00 0.00 0.00 40 1016.9
20260501210132 10 8 6.4 19.3 0.00 0.00 0.00 43 1016.8
20260501210033 10 12 6.4 19.3 0.00 0.00 0.00 43 1016.9
20260501205932 10 11 8.0 20.9 0.00 0.00 0.00 41 1016.9
20260501205833 10 7 8.0 22.5 0.00 0.00 0.00 41 1016.9
20260501205732 10 5 9.7 22.5 0.00 0.00 0.00 42 1017.0
20260501205632 11 2 9.7 22.5 0.00 0.00 0.00 42 1016.9
20260501205532 11 357 9.7 22.5 0.00 0.00 0.00 42 1017.0
20260501205432 11 353 11.3 22.5 0.00 0.00 0.00 41 1017.0
20260501205333 11 350 11.3 22.5 0.00 0.00 0.00 42 1017.0
20260501205232 11 345 11.3 22.5 0.00 0.00 0.00 41 1017.1
20260501205132 11 342 11.3 22.5 0.00 0.00 0.00 43 1017.1
20260501205032 11 340 11.3 27.4 0.00 0.00 0.00 43 1017.1
20260501204932 11 338 11.3 27.4 0.00 0.00 0.00 43 1017.1
20260501204832 11 337 11.3 27.4 0.00 0.00 0.00 43 1017.1
20260501204733 11 338 11.3 27.4 0.00 0.00 0.00 43 1017.1
20260501204632 11 336 11.3 27.4 0.00 0.00 0.00 41 1017.1
20260501204532 11 336 11.3 27.4 0.00 0.00 0.00 40 1017.1